SWA2 KLAX-KSEA

Flight info

Callsign SWA2
Flight time N/A
Altitude 36000
Route LADYJ4 CSTRO SHIMR LKV HAWKZ8
Aircraft B738/M-SDE2E3FGHIRWXY/LB1

Departure

Time 2026-05-05 21:44
Airport Los Angeles International Airport (KLAX)

Arrival

Time N/A
Airport Seattle–Tacoma International Airport (KSEA)
Time Latitude Longitude Altitude Speed Heading
2026-05-05 21:22 33.94099 -118.41087 125 ft 0 kts 83°
2026-05-05 21:32 33.94099 -118.41092 125 ft 2 kts 83°
2026-05-05 21:32 33.94097 -118.41111 121 ft 2 kts 83°
2026-05-05 21:32 33.94095 -118.41131 120 ft 2 kts 82°
2026-05-05 21:33 33.94091 -118.41150 123 ft 2 kts 52°
2026-05-05 21:33 33.94081 -118.41160 120 ft 1 kts 355°
2026-05-05 21:33 33.94076 -118.41159 121 ft 0 kts 350°
2026-05-05 21:37 33.94079 -118.41160 125 ft 3 kts 349°
2026-05-05 21:37 33.94120 -118.41169 122 ft 8 kts 349°
2026-05-05 21:38 33.94172 -118.41188 122 ft 8 kts 344°
2026-05-05 21:38 33.94224 -118.41206 122 ft 8 kts 346°
2026-05-05 21:38 33.94275 -118.41221 123 ft 7 kts 346°
2026-05-05 21:38 33.94327 -118.41231 123 ft 9 kts 352°
2026-05-05 21:39 33.94391 -118.41240 122 ft 9 kts 353°
2026-05-05 21:39 33.94454 -118.41249 124 ft 9 kts 353°
2026-05-05 21:39 33.94517 -118.41259 123 ft 9 kts 353°
2026-05-05 21:39 33.94585 -118.41269 121 ft 10 kts 353°
2026-05-05 21:40 33.94634 -118.41276 123 ft 1 kts 353°
2026-05-05 21:40 33.94693 -118.41285 123 ft 14 kts 353°
2026-05-05 21:40 33.94786 -118.41261 124 ft 14 kts 47°
2026-05-05 21:40 33.94809 -118.41149 124 ft 14 kts 84°
2026-05-05 21:41 33.94821 -118.41025 125 ft 15 kts 83°
2026-05-05 21:41 33.94834 -118.40908 123 ft 14 kts 82°
2026-05-05 21:41 33.94845 -118.40799 125 ft 13 kts 83°
2026-05-05 21:41 33.94855 -118.40692 125 ft 13 kts 82°
2026-05-05 21:42 33.94866 -118.40577 123 ft 15 kts 83°
2026-05-05 21:42 33.94879 -118.40452 121 ft 15 kts 81°
2026-05-05 21:42 33.94893 -118.40329 123 ft 15 kts 82°
2026-05-05 21:42 33.94906 -118.40202 120 ft 15 kts 83°
2026-05-05 21:43 33.94918 -118.40079 123 ft 14 kts 83°
2026-05-05 21:43 33.94938 -118.39966 122 ft 13 kts 60°
2026-05-05 21:43 33.94987 -118.39930 122 ft 7 kts
2026-05-05 21:43 33.95031 -118.39949 123 ft 7 kts 303°
2026-05-05 21:44 33.95037 -118.40011 124 ft 8 kts 264°
2026-05-05 21:44 33.95004 -118.40341 121 ft 83 kts 262°
2026-05-05 21:44 33.94905 -118.41331 243 ft 147 kts 262°
2026-05-05 21:44 33.94769 -118.42613 1195 ft 153 kts 259°
2026-05-05 21:45 33.94624 -118.43833 2542 ft 150 kts 260°
2026-05-05 21:45 33.94434 -118.45292 3007 ft 198 kts 260°
2026-05-05 21:45 33.94201 -118.47027 3608 ft 213 kts 261°
2026-05-05 21:45 33.94127 -118.48821 4286 ft 220 kts 270°
2026-05-05 21:46 33.94128 -118.50745 4658 ft 239 kts 269°
2026-05-05 21:46 33.94057 -118.52807 5055 ft 257 kts 266°
2026-05-05 21:46 33.93901 -118.55024 5557 ft 271 kts 265°
2026-05-05 21:46 33.93717 -118.57344 6324 ft 280 kts 265°
2026-05-05 21:47 33.93537 -118.59652 7428 ft 277 kts 266°
2026-05-05 21:47 33.93522 -118.61961 7715 ft 270 kts 283°
2026-05-05 21:47 33.94258 -118.63976 7772 ft 266 kts 314°
2026-05-05 21:47 33.95778 -118.65277 7982 ft 275 kts 330°
2026-05-05 21:48 33.97447 -118.66459 7982 ft 278 kts 330°
2026-05-05 21:48 33.99174 -118.67466 7968 ft 274 kts 346°
2026-05-05 21:48 34.01060 -118.67692 7988 ft 275 kts
2026-05-05 21:48 34.02984 -118.67554 7996 ft 276 kts
2026-05-05 21:49 34.04904 -118.67406 7989 ft 275 kts
2026-05-05 21:49 34.06793 -118.67271 7986 ft 275 kts
2026-05-05 21:49 34.08679 -118.67509 8051 ft 273 kts 343°
2026-05-05 21:49 34.10476 -118.68223 8801 ft 272 kts 342°
2026-05-05 21:50 34.12267 -118.68961 9840 ft 272 kts 342°
2026-05-05 21:50 34.14086 -118.69712 10522 ft 284 kts 341°
2026-05-05 21:50 34.16048 -118.70519 10731 ft 311 kts 341°
2026-05-05 21:50 34.18183 -118.71395 10910 ft 337 kts 341°
2026-05-05 21:51 34.20471 -118.72330 11327 ft 353 kts 341°
2026-05-05 21:51 34.22822 -118.73288 11937 ft 361 kts 341°
2026-05-05 21:51 34.25215 -118.74263 12738 ft 364 kts 341°
2026-05-05 21:51 34.27639 -118.75248 13411 ft 370 kts 341°
2026-05-05 21:52 34.32575 -118.77254 14752 ft 381 kts 341°
2026-05-05 21:52 34.35100 -118.78281 15490 ft 382 kts 341°
2026-05-05 21:52 34.37637 -118.79312 16108 ft 388 kts 341°
2026-05-05 21:53 34.40182 -118.80348 16738 ft 392 kts 341°
2026-05-05 21:53 34.42809 -118.81417 17398 ft 396 kts 341°
2026-05-05 21:53 34.45406 -118.82475 18015 ft 401 kts 341°
2026-05-05 21:53 34.48061 -118.83557 18620 ft 404 kts 341°
2026-05-05 21:54 34.50715 -118.84640 19351 ft 402 kts 342°
2026-05-05 21:54 34.53378 -118.85726 19859 ft 407 kts 341°
2026-05-05 21:54 34.56069 -118.86825 20435 ft 409 kts 342°
2026-05-05 21:54 34.58768 -118.87928 21065 ft 410 kts 342°
2026-05-05 21:55 34.61479 -118.89037 21583 ft 413 kts 342°
2026-05-05 21:55 34.64212 -118.90156 22099 ft 416 kts 342°
2026-05-05 21:55 34.66955 -118.91279 22669 ft 417 kts 342°
2026-05-05 21:55 34.69721 -118.92413 23176 ft 420 kts 342°
2026-05-05 21:56 34.72509 -118.93556 23616 ft 424 kts 342°
2026-05-05 21:56 34.75313 -118.94707 24045 ft 426 kts 342°
2026-05-05 21:56 34.78100 -118.95851 24425 ft 428 kts 343°
2026-05-05 21:56 34.80929 -118.97014 24805 ft 431 kts 343°
2026-05-05 21:57 34.83780 -118.98187 25178 ft 434 kts 343°
2026-05-05 21:57 34.86646 -118.99366 25577 ft 436 kts 343°
2026-05-05 21:57 34.89524 -119.00552 25959 ft 438 kts 343°
2026-05-05 21:57 34.92430 -119.01750 26326 ft 440 kts 344°
2026-05-05 21:58 34.95335 -119.02948 26680 ft 441 kts 344°
2026-05-05 21:58 34.98252 -119.04153 27043 ft 443 kts 345°
2026-05-05 21:58 35.01181 -119.05363 27396 ft 445 kts 345°
2026-05-05 21:58 35.04093 -119.06567 27733 ft 447 kts 345°
2026-05-05 21:59 35.07040 -119.07786 28115 ft 447 kts 345°
2026-05-05 21:59 35.09983 -119.09007 28628 ft 445 kts 346°
2026-05-05 21:59 35.12901 -119.10218 29182 ft 442 kts 346°
2026-05-05 21:59 35.15801 -119.11422 29691 ft 439 kts 347°
2026-05-05 22:00 35.18693 -119.12623 30138 ft 438 kts 347°
2026-05-05 22:00 35.21580 -119.13822 30477 ft 438 kts 347°
2026-05-05 22:00 35.24470 -119.15022 30781 ft 439 kts 347°
2026-05-05 22:00 35.27363 -119.16225 31074 ft 439 kts 347°
2026-05-05 22:01 35.30255 -119.17429 31405 ft 439 kts 347°
2026-05-05 22:01 35.33147 -119.18634 31733 ft 439 kts 347°
2026-05-05 22:01 35.36045 -119.19843 32039 ft 439 kts 346°
2026-05-05 22:01 35.38943 -119.21042 32339 ft 439 kts 348°
2026-05-05 22:02 35.41847 -119.22217 32645 ft 439 kts 347°
2026-05-05 22:02 35.44750 -119.23423 32952 ft 440 kts 346°
2026-05-05 22:02 35.47625 -119.24524 33239 ft 437 kts 349°
2026-05-05 22:02 35.50570 -119.25451 33563 ft 436 kts 351°
2026-05-05 22:03 35.53530 -119.26295 33888 ft 435 kts 352°
2026-05-05 22:03 35.55483 -119.26838 34091 ft 434 kts 352°
2026-05-05 22:03 35.58432 -119.27660 34362 ft 434 kts 352°
2026-05-05 22:03 35.61372 -119.28494 34642 ft 433 kts 349°
2026-05-05 22:04 35.64302 -119.29332 34995 ft 430 kts 351°
2026-05-05 22:04 35.67215 -119.30189 35252 ft 430 kts 351°
2026-05-05 22:04 35.70140 -119.31060 35397 ft 433 kts 351°
2026-05-05 22:04 35.73069 -119.31939 35594 ft 434 kts 351°
2026-05-05 22:05 35.76009 -119.32824 35833 ft 434 kts 350°
2026-05-05 22:05 35.78935 -119.33706 36057 ft 434 kts 350°
2026-05-05 22:05 35.81891 -119.34596 36035 ft 438 kts 350°
2026-05-05 22:06 35.87788 -119.36373 36040 ft 438 kts 350°
2026-05-05 22:06 35.93665 -119.38148 36039 ft 432 kts 350°
2026-05-05 22:07 35.99497 -119.39910 36044 ft 431 kts 350°
2026-05-05 22:07 36.05312 -119.41668 36049 ft 430 kts 351°
2026-05-05 22:08 36.11130 -119.43428 36049 ft 430 kts 350°
2026-05-05 22:08 36.16961 -119.45195 36057 ft 431 kts 351°
2026-05-05 22:09 36.22814 -119.46972 36052 ft 433 kts 350°
2026-05-05 22:09 36.28681 -119.48757 36057 ft 435 kts 351°
2026-05-05 22:10 36.34538 -119.50541 36053 ft 437 kts 350°
2026-05-05 22:10 36.40457 -119.52348 36057 ft 438 kts 351°
2026-05-05 22:11 36.46389 -119.54161 36047 ft 439 kts 350°
2026-05-05 22:11 36.52335 -119.55982 36049 ft 440 kts 351°
2026-05-05 22:12 36.58282 -119.57805 36036 ft 440 kts 351°
2026-05-05 22:12 36.64220 -119.59629 36039 ft 439 kts 351°
2026-05-05 22:13 36.70119 -119.61444 36043 ft 439 kts 350°
2026-05-05 22:13 36.76040 -119.63268 36051 ft 439 kts 351°
2026-05-05 22:14 36.81992 -119.65105 36047 ft 439 kts 350°
2026-05-05 22:14 36.87919 -119.66936 36040 ft 439 kts 351°
2026-05-05 22:15 36.93876 -119.68780 36036 ft 440 kts 350°
2026-05-05 22:15 36.99779 -119.70610 36044 ft 439 kts 351°
2026-05-05 22:16 37.05719 -119.72456 36039 ft 439 kts 351°
2026-05-05 22:16 37.11647 -119.74299 36039 ft 439 kts 351°
2026-05-05 22:17 37.17578 -119.76147 36038 ft 438 kts 351°
2026-05-05 22:17 37.23497 -119.77994 36035 ft 438 kts 351°
2026-05-05 22:18 37.29417 -119.79844 36039 ft 438 kts 350°
2026-05-05 22:18 37.35295 -119.81685 36042 ft 438 kts 351°
2026-05-05 22:19 37.41212 -119.83540 36037 ft 438 kts 350°
2026-05-05 22:19 37.47129 -119.85398 36044 ft 438 kts 350°
2026-05-05 22:20 37.53054 -119.87262 36034 ft 439 kts 350°
2026-05-05 22:20 37.58980 -119.89130 36049 ft 439 kts 350°
2026-05-05 22:21 37.64914 -119.91002 36032 ft 440 kts 350°
2026-05-05 22:21 37.70858 -119.92882 36050 ft 440 kts 350°
2026-05-05 22:22 37.76802 -119.94764 36047 ft 441 kts 350°
2026-05-05 22:22 37.82724 -119.96642 36034 ft 442 kts 350°
2026-05-05 22:23 37.88690 -119.98538 36037 ft 441 kts 350°
2026-05-05 22:23 37.94647 -120.00435 36026 ft 441 kts 350°
2026-05-05 22:24 38.00595 -120.02332 36031 ft 440 kts 350°
2026-05-05 22:24 38.06531 -120.04227 36032 ft 439 kts 350°
2026-05-05 22:25 38.12468 -120.06126 36038 ft 439 kts 350°
2026-05-05 22:25 38.18399 -120.08026 36034 ft 439 kts 350°
2026-05-05 22:26 38.24311 -120.09756 36027 ft 435 kts 357°
2026-05-05 22:26 38.30320 -120.10361 36025 ft 433 kts
2026-05-05 22:27 38.36334 -120.10839 36021 ft 433 kts
2026-05-05 22:27 38.42343 -120.11343 36015 ft 433 kts 360°
2026-05-05 22:28 38.48358 -120.11878 36015 ft 433 kts 360°
2026-05-05 22:28 38.54373 -120.12426 36008 ft 434 kts 360°
2026-05-05 22:29 38.60398 -120.12978 36014 ft 434 kts 360°
2026-05-05 22:29 38.66424 -120.13531 36026 ft 434 kts 360°
2026-05-05 22:30 38.72460 -120.14086 36029 ft 434 kts 360°
2026-05-05 22:30 38.78451 -120.14637 36045 ft 434 kts 360°
2026-05-05 22:31 38.84480 -120.15192 36060 ft 434 kts 360°
2026-05-05 22:31 38.90517 -120.15749 36057 ft 435 kts 360°
2026-05-05 22:32 38.96558 -120.16307 36047 ft 435 kts 360°
2026-05-05 22:32 39.02605 -120.16868 36034 ft 435 kts 360°
2026-05-05 22:33 39.08652 -120.17428 36014 ft 435 kts 360°
2026-05-05 22:33 39.14659 -120.17986 36017 ft 435 kts 360°
2026-05-05 22:34 39.20695 -120.18549 36039 ft 434 kts 360°
2026-05-05 22:34 39.26713 -120.19110 36053 ft 433 kts 360°
2026-05-05 22:35 39.32736 -120.19672 36051 ft 433 kts 360°
2026-05-05 22:35 39.38727 -120.20233 36058 ft 432 kts 360°
2026-05-05 22:36 39.44734 -120.20795 36027 ft 432 kts 360°
2026-05-05 22:36 39.50698 -120.21355 35998 ft 432 kts 360°
2026-05-05 22:37 39.56699 -120.21920 35970 ft 431 kts 360°
2026-05-05 22:37 39.62696 -120.22484 35945 ft 431 kts 360°
2026-05-05 22:38 39.68682 -120.23049 35929 ft 431 kts 360°
2026-05-05 22:38 39.74665 -120.23615 35929 ft 431 kts 360°
2026-05-05 22:39 39.80647 -120.24181 35912 ft 430 kts 360°
2026-05-05 22:39 39.86583 -120.24744 35890 ft 430 kts 360°
2026-05-05 22:40 39.92549 -120.25311 35879 ft 430 kts 359°
2026-05-05 22:40 39.98518 -120.25879 35870 ft 430 kts 360°
2026-05-05 22:41 40.04491 -120.26448 35872 ft 431 kts 359°
2026-05-05 22:41 40.10483 -120.27020 35861 ft 431 kts 359°
2026-05-05 22:42 40.16481 -120.27594 35872 ft 432 kts 359°
2026-05-05 22:42 40.22482 -120.28170 35890 ft 432 kts 359°
2026-05-05 22:43 40.28453 -120.28743 35906 ft 433 kts 359°
2026-05-05 22:43 40.34478 -120.29322 35911 ft 433 kts 359°
2026-05-05 22:44 40.40508 -120.29903 35906 ft 435 kts 359°
2026-05-05 22:44 40.46607 -120.30490 35911 ft 442 kts 359°
2026-05-05 22:45 40.52697 -120.31080 35894 ft 441 kts 359°
2026-05-05 22:45 40.58801 -120.31674 35880 ft 439 kts 359°
2026-05-05 22:46 40.64878 -120.32265 35869 ft 437 kts 359°
2026-05-05 22:46 40.70941 -120.32855 35864 ft 436 kts 360°
2026-05-05 22:47 40.76998 -120.33444 35869 ft 435 kts 360°
2026-05-05 22:47 40.82996 -120.34029 35876 ft 435 kts 360°
2026-05-05 22:48 40.88013 -120.34520 35878 ft 434 kts 360°
2026-05-05 22:48 40.94042 -120.35110 35892 ft 434 kts 360°
2026-05-05 22:49 41.00075 -120.35701 35889 ft 435 kts 360°
2026-05-05 22:49 41.06104 -120.36294 35893 ft 435 kts 360°
2026-05-05 22:50 41.12143 -120.36889 35890 ft 435 kts 360°
2026-05-05 22:50 41.18187 -120.37485 35895 ft 435 kts 360°
2026-05-05 22:51 41.24218 -120.38082 35917 ft 434 kts 360°
2026-05-05 22:51 41.30249 -120.38679 35942 ft 434 kts
2026-05-05 22:52 41.36245 -120.39273 35960 ft 435 kts
2026-05-05 22:52 41.42281 -120.39873 35979 ft 434 kts
2026-05-05 22:53 41.48312 -120.40474 35984 ft 435 kts
2026-05-05 22:53 41.54347 -120.41076 35975 ft 434 kts
2026-05-05 22:54 41.60378 -120.41679 35967 ft 434 kts
2026-05-05 22:54 41.66357 -120.42278 35942 ft 433 kts
2026-05-05 22:55 41.72315 -120.43726 35928 ft 443 kts 345°
2026-05-05 22:55 41.78090 -120.46644 35908 ft 443 kts 345°
2026-05-05 22:56 41.83842 -120.49602 35921 ft 442 kts 345°
2026-05-05 22:56 41.89602 -120.52524 35936 ft 442 kts 345°
2026-05-05 22:57 41.95377 -120.55429 35946 ft 442 kts 345°
2026-05-05 22:57 42.01137 -120.58322 35977 ft 441 kts 345°
2026-05-05 22:58 42.06855 -120.61197 35976 ft 441 kts 346°
2026-05-05 22:58 42.12600 -120.64094 35983 ft 441 kts 346°
2026-05-05 22:59 42.18359 -120.67003 35968 ft 441 kts 346°
2026-05-05 22:59 42.24110 -120.69915 35962 ft 441 kts 346°
2026-05-05 23:00 42.32730 -120.74289 35942 ft 441 kts 346°
2026-05-05 23:00 42.38474 -120.77211 35916 ft 440 kts 346°
2026-05-05 23:01 42.44210 -120.80136 35928 ft 440 kts 346°
2026-05-05 23:01 42.49908 -120.83045 35934 ft 441 kts 346°
2026-05-05 23:02 42.55661 -120.85988 35927 ft 442 kts 346°
2026-05-05 23:02 42.61417 -120.88940 35927 ft 442 kts 346°
2026-05-05 23:03 42.67170 -120.91896 35930 ft 442 kts 346°
2026-05-05 23:03 42.72921 -120.94857 35922 ft 441 kts 346°
2026-05-05 23:04 42.78658 -120.97817 35932 ft 441 kts 346°
2026-05-05 23:04 42.84389 -121.00779 35935 ft 440 kts 346°
2026-05-05 23:05 42.90067 -121.03720 35927 ft 438 kts 346°
2026-05-05 23:05 42.95767 -121.06678 35920 ft 437 kts 346°
2026-05-05 23:06 43.01437 -121.09626 35924 ft 435 kts 346°
2026-05-05 23:06 43.07099 -121.12575 35924 ft 435 kts 346°
2026-05-05 23:07 43.12748 -121.15523 35931 ft 434 kts 346°
2026-05-05 23:07 43.18391 -121.18474 35927 ft 434 kts 346°
2026-05-05 23:08 43.24033 -121.21430 35932 ft 434 kts 346°
2026-05-05 23:08 43.29678 -121.24394 35921 ft 434 kts 345°
2026-05-05 23:09 43.35322 -121.27363 35927 ft 434 kts 345°
2026-05-05 23:09 43.40935 -121.30323 35924 ft 434 kts 345°
2026-05-05 23:10 43.46579 -121.33304 35932 ft 434 kts 345°
2026-05-05 23:10 43.52219 -121.36290 35940 ft 434 kts 345°
2026-05-05 23:11 43.57852 -121.39277 35936 ft 433 kts 345°
2026-05-05 23:11 43.63474 -121.42265 35937 ft 432 kts 345°
2026-05-05 23:12 43.69086 -121.45254 35941 ft 432 kts 345°
2026-05-05 23:12 43.74691 -121.48244 35948 ft 431 kts 345°
2026-05-05 23:13 43.80281 -121.51233 35954 ft 430 kts 345°
2026-05-05 23:13 43.85844 -121.54213 35954 ft 430 kts 345°
2026-05-05 23:14 43.91411 -121.57202 35954 ft 429 kts 345°
2026-05-05 23:14 43.96968 -121.60191 35969 ft 427 kts 344°
2026-05-05 23:15 44.02507 -121.63176 35975 ft 427 kts 344°
2026-05-05 23:15 44.08045 -121.66166 35979 ft 427 kts 344°
2026-05-05 23:16 44.13582 -121.69162 35985 ft 427 kts 344°
2026-05-05 23:16 44.19101 -121.72154 35989 ft 427 kts 344°
2026-05-05 23:17 44.24640 -121.75164 35985 ft 427 kts 343°
2026-05-05 23:17 44.30166 -121.78174 35986 ft 425 kts 344°
2026-05-05 23:18 44.35653 -121.81167 35996 ft 426 kts 344°
2026-05-05 23:18 44.41171 -121.84182 35993 ft 426 kts 343°
2026-05-05 23:19 44.46689 -121.87204 36000 ft 425 kts 343°
2026-05-05 23:19 44.52195 -121.90226 35999 ft 425 kts 343°
2026-05-05 23:20 44.57715 -121.93262 36011 ft 426 kts 343°
2026-05-05 23:20 44.63243 -121.96308 36011 ft 426 kts 343°
2026-05-05 23:21 44.68773 -121.99362 36014 ft 426 kts 343°
2026-05-05 23:21 44.74280 -122.02410 36023 ft 425 kts 343°
2026-05-05 23:22 44.79748 -122.05442 36034 ft 425 kts 343°
2026-05-05 23:22 44.85258 -122.08503 36032 ft 425 kts 343°
2026-05-05 23:23 44.90759 -122.11566 36034 ft 426 kts 343°
2026-05-05 23:23 44.96249 -122.14630 36026 ft 422 kts 340°
2026-05-05 23:24 45.01567 -122.17603 36053 ft 421 kts 340°
2026-05-05 23:24 45.07006 -122.20650 36060 ft 420 kts 340°
2026-05-05 23:25 45.12441 -122.23700 36060 ft 420 kts 340°
2026-05-05 23:25 45.17856 -122.26747 35837 ft 412 kts 340°
2026-05-05 23:26 45.20479 -122.28225 35204 ft 412 kts 340°
2026-05-05 23:26 45.23163 -122.29738 34346 ft 417 kts 340°
2026-05-05 23:26 45.25892 -122.31276 33283 ft 426 kts 340°
2026-05-05 23:26 45.28659 -122.32838 32475 ft 428 kts 340°
2026-05-05 23:27 45.31418 -122.34400 31914 ft 425 kts 340°
2026-05-05 23:27 45.34144 -122.35946 31416 ft 420 kts 340°
2026-05-05 23:27 45.36848 -122.37479 30887 ft 416 kts 340°
2026-05-05 23:27 45.39532 -122.39003 30308 ft 415 kts 339°
2026-05-05 23:28 45.42208 -122.40523 29667 ft 413 kts 339°
2026-05-05 23:28 45.44863 -122.42033 29092 ft 409 kts 339°
2026-05-05 23:28 45.47494 -122.43531 28548 ft 404 kts 339°
2026-05-05 23:28 45.50099 -122.45016 28000 ft 401 kts 340°
2026-05-05 23:29 45.51808 -122.45990 27626 ft 399 kts 340°
2026-05-05 23:29 45.55235 -122.47946 26887 ft 395 kts 340°
2026-05-05 23:29 45.57778 -122.49400 26354 ft 392 kts 340°
2026-05-05 23:29 45.60297 -122.50840 25845 ft 389 kts 340°
2026-05-05 23:30 45.62801 -122.52274 25332 ft 386 kts 340°
2026-05-05 23:30 45.64446 -122.53217 25003 ft 384 kts 340°
2026-05-05 23:30 45.67724 -122.55097 24359 ft 380 kts 340°
2026-05-05 23:30 45.70178 -122.56505 24223 ft 382 kts 340°
2026-05-05 23:31 45.72644 -122.57922 24123 ft 381 kts 340°
2026-05-05 23:31 45.75116 -122.59278 24070 ft 377 kts 345°
2026-05-05 23:31 45.77634 -122.60098 23760 ft 369 kts 351°
2026-05-05 23:31 45.79317 -122.60504 23417 ft 368 kts 352°
2026-05-05 23:32 45.81841 -122.61060 22757 ft 368 kts 352°
2026-05-05 23:32 45.84374 -122.61616 22278 ft 367 kts 352°
2026-05-05 23:32 45.86922 -122.62196 22161 ft 371 kts 352°
2026-05-05 23:32 45.89465 -122.62798 22080 ft 368 kts 352°
2026-05-05 23:33 45.91983 -122.63409 22071 ft 367 kts 351°
2026-05-05 23:33 45.94511 -122.64032 22077 ft 368 kts 351°
2026-05-05 23:33 45.97035 -122.64658 22076 ft 368 kts 351°
2026-05-05 23:33 45.99559 -122.65286 22077 ft 368 kts 351°
2026-05-05 23:34 46.02078 -122.65913 22079 ft 368 kts 351°
2026-05-05 23:34 46.04601 -122.66542 22082 ft 367 kts 351°
2026-05-05 23:34 46.07119 -122.67169 22075 ft 367 kts 351°
2026-05-05 23:34 46.09626 -122.67795 22007 ft 361 kts 351°
2026-05-05 23:35 46.12042 -122.68325 21638 ft 352 kts 353°
2026-05-05 23:35 46.14447 -122.68792 21092 ft 344 kts 353°
2026-05-05 23:35 46.16840 -122.69243 20414 ft 349 kts 354°
2026-05-05 23:35 46.19250 -122.69702 19969 ft 347 kts 353°
2026-05-05 23:36 46.21636 -122.70164 19601 ft 343 kts 353°
2026-05-05 23:36 46.23968 -122.70622 19181 ft 341 kts 353°
2026-05-05 23:36 46.26313 -122.71086 18751 ft 340 kts 353°
2026-05-05 23:36 46.28659 -122.71552 18320 ft 339 kts 353°
2026-05-05 23:37 46.30989 -122.72015 17851 ft 337 kts 353°
2026-05-05 23:37 46.33311 -122.72336 17421 ft 334 kts 358°
2026-05-05 23:37 46.35627 -122.72450 16993 ft 332 kts 359°
2026-05-05 23:37 46.37938 -122.72513 16555 ft 331 kts 359°
2026-05-05 23:38 46.40230 -122.72568 16186 ft 329 kts 359°
2026-05-05 23:38 46.42515 -122.72629 15956 ft 331 kts 359°
2026-05-05 23:38 46.44805 -122.72696 15702 ft 328 kts 359°
2026-05-05 23:38 46.47079 -122.72770 15463 ft 326 kts 359°
2026-05-05 23:39 46.49344 -122.72847 15223 ft 326 kts 359°
2026-05-05 23:39 46.51610 -122.72926 14979 ft 326 kts 359°
2026-05-05 23:39 46.53875 -122.73006 14735 ft 325 kts 359°
2026-05-05 23:39 46.56134 -122.73087 14515 ft 325 kts 359°
2026-05-05 23:40 46.58394 -122.73169 14278 ft 325 kts 359°
2026-05-05 23:40 46.60654 -122.73250 14047 ft 324 kts 359°
2026-05-05 23:40 46.62911 -122.73332 13812 ft 324 kts 359°
2026-05-05 23:40 46.65135 -122.73413 13555 ft 323 kts 359°
2026-05-05 23:41 46.67412 -122.73495 13294 ft 323 kts 359°
2026-05-05 23:41 46.69628 -122.73576 13039 ft 322 kts 359°
2026-05-05 23:41 46.71866 -122.73657 12787 ft 321 kts 359°
2026-05-05 23:41 46.74103 -122.73738 12531 ft 321 kts 359°
2026-05-05 23:42 46.76329 -122.73816 12280 ft 319 kts
2026-05-05 23:42 46.78507 -122.73287 12058 ft 317 kts 20°
2026-05-05 23:42 46.80425 -122.71707 12017 ft 317 kts 37°
2026-05-05 23:42 46.82093 -122.69727 11986 ft 302 kts 38°
2026-05-05 23:43 46.83689 -122.67789 11985 ft 296 kts 38°
2026-05-05 23:43 46.85264 -122.65893 11980 ft 292 kts 37°
2026-05-05 23:43 46.86864 -122.64057 11987 ft 292 kts 37°
2026-05-05 23:43 46.88478 -122.62230 11998 ft 293 kts 37°
2026-05-05 23:44 46.90061 -122.60436 11998 ft 294 kts 37°
2026-05-05 23:44 46.91687 -122.58587 11994 ft 294 kts 37°
2026-05-05 23:44 46.93312 -122.56758 11980 ft 294 kts 33°
2026-05-05 23:44 46.95149 -122.55461 11811 ft 295 kts 17°
2026-05-05 23:45 46.97124 -122.54626 11576 ft 296 kts 15°
2026-05-05 23:45 46.99117 -122.53815 11337 ft 296 kts 15°
2026-05-05 23:45 47.01083 -122.52996 11089 ft 292 kts 15°
2026-05-05 23:45 47.03023 -122.52165 10842 ft 289 kts 16°
2026-05-05 23:46 47.04938 -122.51333 10601 ft 285 kts 16°
2026-05-05 23:46 47.06830 -122.50507 10367 ft 284 kts 16°
2026-05-05 23:46 47.08736 -122.49779 10121 ft 283 kts
2026-05-05 23:46 47.10685 -122.49410 10032 ft 282 kts
2026-05-05 23:47 47.12658 -122.49110 10002 ft 286 kts
2026-05-05 23:47 47.14619 -122.48790 9976 ft 280 kts
2026-05-05 23:47 47.16525 -122.48457 9969 ft 272 kts
2026-05-05 23:47 47.18391 -122.48121 9799 ft 267 kts
2026-05-05 23:48 47.20234 -122.47807 9283 ft 274 kts
2026-05-05 23:48 47.22149 -122.47516 8850 ft 278 kts
2026-05-05 23:48 47.24081 -122.47227 8514 ft 277 kts
2026-05-05 23:48 47.25962 -122.46945 8273 ft 271 kts
2026-05-05 23:49 47.27858 -122.46658 7868 ft 274 kts
2026-05-05 23:49 47.29764 -122.46368 7498 ft 276 kts
2026-05-05 23:49 47.31665 -122.46078 7249 ft 272 kts
2026-05-05 23:49 47.33544 -122.45790 6962 ft 271 kts
2026-05-05 23:50 47.35411 -122.45516 6621 ft 267 kts
2026-05-05 23:50 47.36617 -122.45460 6562 ft 255 kts
2026-05-05 23:50 47.37774 -122.45463 6427 ft 248 kts 359°
2026-05-05 23:50 47.40616 -122.45499 5758 ft 244 kts 359°
2026-05-05 23:51 47.42306 -122.45518 5344 ft 242 kts 359°
2026-05-05 23:51 47.43990 -122.45527 4956 ft 241 kts 359°
2026-05-05 23:51 47.45658 -122.45532 4595 ft 239 kts 359°
2026-05-05 23:51 47.47321 -122.45535 4194 ft 239 kts 359°
2026-05-05 23:52 47.48981 -122.45536 4015 ft 237 kts 360°
2026-05-05 23:52 47.50624 -122.45537 4022 ft 234 kts 359°
2026-05-05 23:52 47.52231 -122.45555 3994 ft 227 kts 359°
2026-05-05 23:52 47.53264 -122.45580 4003 ft 221 kts 359°
2026-05-05 23:53 47.55302 -122.45630 3989 ft 218 kts 359°
2026-05-05 23:53 47.56810 -122.45673 3983 ft 215 kts 358°
2026-05-05 23:53 47.58311 -122.45722 3987 ft 216 kts 358°
2026-05-05 23:53 47.59307 -122.45754 3985 ft 217 kts 358°
2026-05-05 23:54 47.61328 -122.45825 3986 ft 217 kts 358°
2026-05-05 23:54 47.62841 -122.45880 3977 ft 217 kts 358°
2026-05-05 23:54 47.64352 -122.45935 3971 ft 217 kts 358°
2026-05-05 23:54 47.65863 -122.45977 3973 ft 217 kts 358°
2026-05-05 23:55 47.67373 -122.46030 3977 ft 217 kts 358°
2026-05-05 23:55 47.68890 -122.46102 3975 ft 218 kts 355°
2026-05-05 23:55 47.70382 -122.46262 3915 ft 221 kts
2026-05-05 23:55 47.71394 -122.45874 3878 ft 223 kts 24°
2026-05-05 23:56 47.72731 -122.43724 3957 ft 222 kts 73°
2026-05-05 23:56 47.72902 -122.41437 3978 ft 224 kts 85°
2026-05-05 23:56 47.72998 -122.39113 3979 ft 226 kts 85°
2026-05-05 23:56 47.72894 -122.37542 3954 ft 230 kts 108°
2026-05-05 23:57 47.71507 -122.35241 3999 ft 231 kts 145°
2026-05-05 23:57 47.70628 -122.34342 3992 ft 232 kts 145°
2026-05-05 23:57 47.68842 -122.32530 3990 ft 233 kts 148°